Location: Bouchavesnes-Bergen
(49.9859°N, 2.9203°E)
Time: 02:43:17
(UTC+00:00)

USA 267 - Pass Details

Date: 09 March 2021
Orbit: 1099 x 1108 km, 123.0° (Epoch: 20 March)

Event Time Altitude Azimuth Distance (km) Brightness Sun altitude
Rises 03:25:18 0° 58° (ENE) 3,925 7.5 -27.2°
Reaches altitude 10° 03:27:47 10° 58° (ENE) 2,964 6.5 -26.9°
Maximum altitude 03:34:20 80° 332° (NNW) 1,120 3.2 -25.9°
Enters shadow 03:35:56 55° 257° (WSW) 1,306 3.2 -25.7°
